Location: Barcelona
(41.3830°N, 2.1830°E)
Time: 22:46:50
(UTC+02:00)

ESTCUBE 1 - Visible Passes

Search period start: 21 May 2019 00:00
Search period end: 31 May 2019 00:00
Orbit: 646 x 662 km, 98.0° (Epoch: 21 May)

Date Brightness Start Highest point End Pass type
(mag) Time Alt. Az. Time Alt. Az. Time Alt. Az.
21 May ? 01:32:44 21° WNW 01:32:44 21° WNW 01:35:21 10° NW visible
22 May ? 00:22:54 65° NE 00:22:54 65° NE 00:27:05 10° N visible
22 May ? 02:00:46 11° WNW 02:00:46 11° WNW 02:01:17 10° WNW visible
22 May ? 23:13:03 13° ENE 23:14:09 14° ENE 23:16:23 10° NNE visible
23 May ? 00:50:55 57° WNW 00:50:55 57° WNW 00:54:51 10° NNW visible
23 May ? 23:41:05 24° E 23:41:37 25° ENE 23:45:16 10° NNE visible
24 May ? 01:18:57 29° WNW 01:18:57 29° WNW 01:22:14 10° NW visible
25 May ? 00:09:07 47° ENE 00:09:12 47° ENE 00:13:30 10° N visible
25 May ? 01:46:59 15° W 01:46:59 15° W 01:49:00 10° NW visible
25 May ? 23:00:47 10° ENE 23:00:50 10° ENE 23:00:54 10° ENE visible
26 May ? 00:37:08 80° NW 00:37:08 80° NW 00:41:25 10° NNW visible
26 May ? 23:27:18 18° E 23:28:16 19° ENE 23:31:22 10° NNE visible
27 May ? 01:05:10 41° W 01:05:10 41° W 01:08:59 10° NNW visible
27 May ? 23:55:20 33° E 23:55:48 34° ENE 23:59:51 10° N visible
28 May ? 01:33:12 21° W 01:33:12 21° W 01:36:08 10° NW visible
29 May ? 00:23:22 68° E 00:23:27 68° ENE 00:27:54 10° N visible
29 May ? 02:01:14 11° W 02:01:14 11° W 02:01:57 10° WNW visible
29 May ? 23:13:32 12° E 23:14:55 14° ENE 23:17:15 10° NNE visible
30 May ? 00:51:24 59° W 00:51:24 59° W 00:55:38 10° NNW visible
30 May ? 23:41:34 24° E 23:42:24 26° ENE 23:46:05 10° NNE visible
